Location: Pensacola
(30.4142°N, 87.2155°W)
Time: 19:44:03
(UTC-06:00)

Hubble Space Telescope - Visible Passes

Search period start: 22 November 2017 00:00
Search period end: 02 December 2017 00:00
Orbit: 537 x 541 km, 28.5° (Epoch: 22 November)

Date Brightness Start Highest point End Pass type
(mag) Time Alt. Az. Time Alt. Az. Time Alt. Az.
22 Nov 1.1 04:26:19 62° SE 04:26:19 62° SE 04:30:00 10° E visible
23 Nov 1.7 04:16:45 46° ESE 04:16:45 46° ESE 04:19:47 10° E visible
23 Nov 1.7 05:52:51 10° W 05:56:45 41° SSW 06:00:38 10° SE visible
24 Nov 2.4 04:07:10 33° ESE 04:07:10 33° ESE 04:09:33 10° ESE visible
24 Nov 1.9 05:42:43 10° W 05:46:29 34° SSW 05:50:15 10° SE visible
25 Nov 3.0 03:57:36 24° ESE 03:57:36 24° ESE 03:59:20 10° ESE visible
25 Nov 2.1 05:32:57 12° WSW 05:36:14 29° SSW 05:39:48 10° SE visible
26 Nov 3.5 03:48:01 17° ESE 03:48:01 17° ESE 03:49:04 10° ESE visible
26 Nov 2.4 05:23:23 14° WSW 05:25:57 24° SSW 05:29:16 10° SSE visible
27 Nov 3.9 03:38:28 12° ESE 03:38:28 12° ESE 03:38:47 10° ESE visible
27 Nov 2.6 05:13:50 15° SW 05:15:39 19° SSW 05:18:37 10° SSE visible
28 Nov 2.8 05:04:18 14° SW 05:05:20 15° SSW 05:07:47 10° SSE visible
29 Nov 3.1 04:54:48 12° SSW 04:55:01 12° SSW 04:56:34 10° S visible
